Location: Unspecified
(0.0000°N, 0.0000°E)
Time: 13:43:05
(UTC+00:00)

ISS - Pass Details

Date: 14 September 2019
Orbit: 411 x 421 km, 51.6° (Epoch: 18 September)

Event Time Altitude Azimuth Distance (km) Brightness Sun altitude
Rises 19:12:05 0° 229° (SW) 2,342 0.7 -19.1°
Reaches altitude 10° 19:14:17 10° 238° (WSW) 1,476 -0.2 -19.6°
Maximum altitude 19:17:20 35° 305° (NW) 682 -2.2 -20.4°
Enters shadow 19:19:04 20° 359° (N) 1,005 -1.8 -20.8°
